RH
49 20 13 14 13 10 8 9 11 12 12 11 11 15 13 11 13 14 20 29 29 32 42 65 92 83 89 91 92 93 92 91 91 91 91 91 90 89 88 86 86 84 83 80 79 80 80 82 87
24 16 13 12 11 8 6 8 12 10 12 13 12 13 12 11 12 16 25 30 30 31 42 49 93 86 88 93 94 92 91 91 91 91 91 90 89 88 86 86 86 84 82 81 78 80 81 86 89
19 15 12 9 8 8 6 10 10 11 12 11 12 10 10 10 13 13 14 29 29 32 37 51 90 89 91 94 94 92 92 92 92 91 88 84 85 81 85 81 86 85 83 81 78 79 86 90 91
14 13 11 11 9 8 8 9 11 12 11 10 10 12 10 12 15 17 18 26 32 35 37 79 91 91 92 93 93 90 91 93 92 92 87 87 85 80 80 80 85 83 82 79 82 86 90 92 92
13 12 10 10 8 6 9 12 14 13 12 12 10 12 12 14 18 23 23 29 35 40 44 71 93 91 91 92 92 91 92 93 92 88 87 79 90 89 94 86 79 82 82 84 87 90 92 93 91
11 11 11 8 7 8 9 8 10 11 11 11 11 11 11 16 20 26 29 35 42 52 57 66 90 92 89 91 93 93 92 91 90 86 86 87 84 81 86 81 80 87 87 90 92 93 92 93 92
14 12 10 8 8 9 9 8 11 11 11 10 10 12 11 16 27 40 36 40 48 56 61 66 71 79 95 90 91 94 94 93 93 89 89 86 87 88 84 79 86 88 89 92 93 93 94 92 92
13 12 13 9 10 8 7 9 9 10 10 10 10 12 14 20 32 38 43 45 48 53 59 62 64 71 76 73 91 94 94 94 93 92 90 92 88 89 85 87 87 88 90 92 94 93 94 93 91
14 15 12 11 9 8 10 10 10 10 10 10 10 12 12 17 28 32 43 50 52 55 56 58 61 65 73 78 76 93 95 94 94 88 91 89 65 70 70 69 89 88 90 93 94 93 94 93 92
16 16 13 8 9 9 9 9 9 11 11 11 11 12 11 14 20 24 33 42 52 55 58 54 61 64 76 75 78 76 72 69 66 66 68 59 65 57 50 62 90 88 90 94 93 94 94 82 62
17 19 13 11 10 9 9 9 8 10 10 11 12 11 11 12 16 22 22 28 35 43 53 56 60 67 82 78 78 71 83 74 74 70 70 66 65 57 50 51 61 80 89 68 79 81 60 64 62
22 16 16 13 12 14 13 10 12 10 9 8 10 11 12 14 14 16 19 21 26 36 50 57 57 64 86 81 75 77 95 92 94 83 79 80 71 68 54 49 51 65 92 81 74 73 66 61 55
22 19 15 16 15 14 14 14 14 12 9 10 10 12 12 12 12 16 16 19 24 34 45 55 58 63 79 88 84 78 90 94 95 92 85 83 72 69 52 51 50 60 83 94 86 76 64 63 54
16 17 17 15 15 14 16 16 14 13 12 13 13 13 11 12 12 13 15 22 28 32 43 50 58 61 72 79 80 83 80 88 95 94 85 80 80 80 66 71 61 81 84 92 82 85 63 59 52
17 20 17 16 16 16 15 19 17 14 13 14 13 13 13 12 11 12 14 16 20 27 38 48 58 60 69 68 72 74 75 77 95 93 88 81 82 83 74 73 72 62 82 83 84 83 68 53 49
20 19 23 16 17 17 16 21 15 15 15 16 17 16 15 13 12 11 12 13 14 17 28 43 48 62 73 68 69 68 74 79 85 93 91 89 86 80 82 80 79 79 84 77 84 76 60 51 48
16 19 16 16 18 18 21 20 14 14 14 15 15 14 14 13 12 12 12 12 14 18 24 43 54 64 74 69 71 76 77 82 86 94 91 84 87 87 82 80 83 82 84 76 75 78 58 52 47
16 16 16 17 12 15 19 19 16 15 16 16 16 15 15 14 13 12 12 14 20 26 31 44 54 62 78 81 87 83 77 83 88 90 94 90 91 87 90 91 88 86 85 72 72 73 58 51 50
13 13 13 11 12 20 19 17 15 14 14 17 17 17 16 15 13 12 12 18 32 37 40 48 56 62 84 87 93 89 84 90 81 77 90 94 93 93 92 94 94 90 85 73 73 69 62 63 54
14 15 14 11 10 16 16 14 11 11 13 15 15 15 13 12 11 11 13 24 42 41 47 48 51 59 80 80 72 71 84 84 82 84 89 89 93 94 95 95 96 93 83 82 77 69 63 62 56
15 16 14 14 12 12 15 16 13 11 10 10 11 11 10 11 12 15 17 21 34 46 52 49 50 57 72 67 71 64 66 78 79 83 89 90 92 93 94 96 95 94 91 86 78 70 63 64 62
18 11 14 16 17 18 13 16 10 12 12 10 11 13 15 19 22 22 20 19 29 47 54 56 53 58 64 63 64 64 60 62 67 68 74 89 78 83 92 92 96 96 93 89 78 72 67 60 61
17 13 17 20 20 19 16 18 12 10 10 13 13 20 28 30 32 32 27 21 23 46 62 73 68 68 67 62 58 58 56 56 66 64 71 77 84 91 90 94 95 95 94 89 84 78 71 64 54
15 20 19 19 19 26 18 18 12 10 14 13 29 32 36 35 35 34 36 31 31 55 72 81 74 74 75 69 61 61 64 71 73 71 78 84 90 95 96 96 97 95 92 92 87 83 73 64 59
15 23 22 26 27 23 12 17 15 11 18 21 33 39 38 37 41 39 39 39 41 56 73 83 72 77 84 80 70 65 69 75 72 72 67 84 97 98 98 97 97 97 94 92 87 85 82 70 64
17 20 22 23 22 20 17 23 16 11 14 32 37 38 39 42 46 44 47 49 53 66 69 81 74 77 80 75 70 70 71 64 64 60 64 87 94 95 94 96 96 95 94 92 89 86 87 76 70
17 22 15 16 16 24 16 18 13 16 14 35 38 40 45 48 51 52 53 57 60 68 73 81 80 73 77 66 66 67 69 66 64 65 77 91 90 94 96 96 96 95 94 94 93 93 94 87 77
13 13 21 16 24 22 12 17 18 24 30 37 41 43 48 52 57 62 61 65 66 69 73 79 81 74 73 65 67 64 64 63 65 74 87 93 92 92 94 94 94 94 93 92 91 89 83 79 78
20 26 20 15 20 19 22 18 17 28 33 40 42 43 47 52 54 60 71 77 77 79 79 82 85 81 78 71 71 67 69 64 72 78 82 92 93 93 92 92 94 91 86 85 85 78 78 75 74
14 22 22 27 24 21 20 18 33 30 33 40 44 42 43 46 49 52 60 76 83 88 85 85 86 86 79 77 72 75 72 68 77 88 88 92 96 93 92 94 91 91 79 77 75 72 69 71 75
Wind_Speed
8 8 5 6 8 7 11 7 1 6 6 5 4 6 6 5 1 5 4 11 8 13 12 15 11 10 9 8 8 9 12 15 17 18 17 17 17 16 18 17 15 17 17 18 18 17 18 17 16
8 6 6 3 9 11 10 7 11 7 4 2 6 8 6 4 2 3 10 13 11 12 11 13 13 11 11 8 8 8 12 15 17 18 19 18 17 15 16 17 19 17 18 17 18 18 18 16 16
9 6 6 6 10 13 9 8 7 7 3 7 8 6 3 3 6 7 5 16 12 11 11 12 14 13 12 9 9 9 11 13 15 17 20 20 19 20 19 15 17 18 17 17 17 17 17 15 15
7 6 5 10 14 10 9 7 6 3 4 8 7 7 4 0 6 5 9 16 12 11 10 15 11 12 12 10 9 9 11 13 15 13 16 18 18 16 14 14 12 16 16 16 17 17 16 16 16
6 4 11 13 18 13 8 5 4 6 3 7 10 7 4 5 5 4 10 14 13 11 9 14 9 12 13 12 10 10 10 10 14 18 17 19 21 20 5 8 13 13 14 16 16 16 15 14 16
8 5 11 15 19 10 11 11 10 9 5 7 7 9 8 7 4 4 6 11 11 11 10 12 11 10 11 13 11 10 11 11 9 15 15 20 23 24 19 18 13 14 16 18 18 17 15 14 14
15 11 16 18 16 10 12 6 11 8 7 9 5 13 4 7 4 2 5 8 11 11 12 11 12 12 8 10 11 10 10 9 7 11 13 18 18 15 13 16 14 14 16 17 17 19 15 14 15
10 10 20 14 17 18 6 8 7 10 6 3 3 7 9 5 4 4 6 8 11 11 11 12 12 12 12 13 10 10 10 9 9 12 14 13 14 14 17 12 14 16 16 18 21 16 19 14 15
6 12 16 18 18 12 3 10 6 1 7 3 2 2 4 5 2 3 7 9 10 10 12 12 12 13 11 11 12 10 10 7 10 11 11 11 12 15 15 15 12 16 17 17 16 19 19 15 15
13 15 22 16 13 11 5 10 5 8 13 9 7 4 5 4 2 5 8 10 14 14 13 12 13 13 11 8 9 13 12 11 12 12 15 12 14 15 15 11 12 16 19 19 21 18 18 16 11
13 24 17 12 14 16 15 14 12 12 16 13 13 5 8 8 7 8 8 11 14 14 12 14 13 13 13 10 7 7 6 8 9 15 14 13 10 10 10 8 9 10 12 9 12 13 13 14 11
17 17 17 18 17 14 17 17 15 16 17 14 11 13 13 13 11 10 9 11 12 13 15 15 15 14 13 8 9 8 6 7 6 8 13 9 8 10 11 9 12 10 7 11 10 8 13 14 13
20 19 17 16 19 19 17 20 21 23 16 19 15 16 17 15 14 12 11 10 10 13 15 17 17 16 12 11 8 9 8 7 7 8 10 9 11 11 11 11 9 10 10 8 9 10 10 10 11
13 14 17 17 18 20 22 24 23 17 13 22 19 19 19 17 16 14 12 12 12 13 16 17 19 17 15 13 14 9 9 9 7 8 10 16 11 10 11 9 11 8 8 9 9 6 11 10 11
14 19 19 19 19 19 15 25 27 21 22 25 24 20 18 18 16 15 14 12 12 13 15 19 19 18 17 16 13 10 10 10 7 9 13 17 14 11 11 9 10 11 10 12 9 9 11 11 10
13 17 17 12 11 19 19 24 3 2 10 14 16 17 15 16 14 15 14 13 12 12 15 16 16 19 18 16 13 10 10 9 8 7 9 14 14 13 11 9 9 10 9 10 8 9 12 11 11
17 19 21 15 10 13 18 19 15 6 12 15 12 13 12 12 13 15 15 13 11 12 14 18 20 21 20 16 12 11 11 9 8 7 8 15 14 13 12 9 10 12 9 11 11 10 13 11 11
16 20 18 21 17 17 22 23 16 13 12 12 12 13 14 16 17 17 15 11 11 10 12 16 17 19 18 12 9 8 9 8 8 8 8 11 10 14 11 8 8 12 10 11 12 12 13 13 12
22 24 22 18 7 13 17 21 19 17 20 18 18 20 19 18 18 18 14 11 8 7 12 16 18 20 13 12 11 10 11 8 9 10 12 10 10 11 13 10 11 13 12 14 14 14 17 12 13
24 26 28 20 16 14 21 28 24 23 22 21 20 21 22 22 19 17 13 12 9 9 12 16 18 20 15 11 12 8 8 7 8 8 9 13 13 12 10 11 12 13 12 13 14 16 13 11 13
24 26 19 21 15 17 20 31 25 26 27 24 23 24 21 18 15 13 13 13 11 12 13 15 18 20 17 17 12 10 10 7 9 10 10 11 13 13 12 11 11 15 13 11 15 16 20 13 13
23 20 18 18 14 17 14 22 15 4 8 11 14 12 10 9 10 12 13 13 11 11 11 12 15 18 18 19 16 16 12 10 9 10 10 9 16 16 13 13 12 13 12 15 15 13 14 15 15
24 17 14 15 15 17 21 12 11 11 13 11 8 5 6 4 6 8 9 11 8 10 11 13 15 17 18 18 15 12 11 7 7 10 12 13 10 11 13 14 16 15 13 15 17 16 14 12 14
17 12 11 11 11 15 19 17 11 12 10 7 5 5 2 3 4 5 3 3 7 10 11 12 17 16 16 15 14 14 13 10 8 9 9 7 7 7 9 12 12 15 15 16 16 16 18 14 13
26 18 10 11 11 17 9 13 17 3 5 6 7 5 3 5 7 7 5 2 7 9 11 12 17 17 15 16 14 14 13 11 12 11 11 8 5 3 8 12 13 11 13 16 17 17 16 16 14
23 25 12 20 13 14 12 11 10 13 14 9 9 5 4 6 8 9 7 4 5 7 10 11 14 15 16 16 16 14 12 8 10 11 7 6 6 7 9 10 11 14 13 15 16 12 12 14 13
25 23 27 18 13 9 12 15 8 7 15 14 9 6 4 7 9 10 9 8 5 4 8 10 12 14 15 15 13 12 10 11 10 8 7 6 7 6 9 10 10 11 12 12 14 11 12 10 11
24 22 21 14 20 20 18 18 8 15 17 16 11 7 6 8 9 9 9 9 6 1 5 9 10 12 13 13 11 10 9 10 8 7 7 7 8 10 11 11 12 13 13 12 13 12 14 15 10
17 16 20 20 16 15 14 12 7 14 17 15 10 7 7 9 10 11 11 9 7 2 3 7 8 10 12 12 11 9 9 10 7 7 7 7 9 11 12 12 12 13 15 16 12 14 15 15 14
22 21 24 15 24 16 13 6 5 8 16 13 11 10 10 10 12 13 13 11 13 4 3 7 6 7 10 9 9 8 9 8 8 6 7 7 8 11 11 10 12 13 15 16 17 17 16 16 14
Wind_Direction
197 202 224 225 237 237 243 210 297 190 199 182 182 187 212 353 225 7 95 150 152 150 153 164 154 159 154 160 164 164 158 159 157 153 155 154 154 154 147 143 141 137 140 144 140 137 133 127 122
187 184 214 239 251 228 219 194 212 191 103 149 184 212 234 210 176 134 149 162 164 157 156 158 153 153 153 153 159 157 162 162 160 157 156 153 155 158 148 148 143 142 141 145 144 138 136 130 123
176 224 241 236 239 245 255 182 201 142 206 209 198 230 191 163 167 157 117 161 159 159 164 142 156 154 148 156 157 158 162 163 161 160 164 156 164 155 130 179 146 142 142 141 142 141 134 126 125
180 190 217 243 237 244 269 185 137 224 164 210 219 198 192 150 148 170 148 163 161 163 162 130 153 151 150 155 157 164 164 160 160 168 155 147 149 141 147 157 141 146 145 146 137 134 129 123 121
208 244 242 237 247 250 242 249 256 266 266 205 208 202 222 165 156 150 169 172 171 159 159 156 154 157 157 157 159 166 161 161 163 169 160 155 125 128 124 247 209 143 137 133 139 133 123 126 122
207 270 237 239 241 214 251 251 258 265 252 221 223 227 235 99 173 119 183 181 173 161 158 154 159 164 166 164 163 166 168 179 190 161 161 143 162 169 172 184 164 135 135 135 136 130 129 125 123
250 226 248 254 266 256 246 229 229 237 240 209 236 210 179 112 49 126 182 181 179 167 163 158 168 174 177 176 170 178 181 180 170 157 151 159 161 161 187 162 148 150 139 144 139 136 131 128 123
252 258 256 243 255 253 201 207 222 226 168 129 232 210 167 77 73 153 170 185 186 178 171 166 168 176 185 188 184 178 189 184 164 152 158 158 164 174 165 153 156 157 149 153 144 142 125 133 121
250 245 244 236 250 248 222 233 186 247 246 206 237 231 25 28 78 165 176 183 191 191 185 177 175 178 183 194 186 184 181 164 151 150 149 154 170 174 169 167 156 157 153 145 143 137 128 129 121
224 235 245 250 265 257 255 252 213 228 211 227 241 243 285 331 289 249 214 201 203 197 193 187 185 182 183 187 195 195 194 199 200 190 174 176 172 180 181 170 177 165 151 151 140 140 132 157 151
222 244 258 245 260 262 259 248 244 253 248 247 248 269 287 294 272 251 251 226 215 205 198 199 190 181 186 188 193 189 188 196 205 195 182 181 178 180 202 193 180 165 143 154 148 145 163 164 162
251 247 259 264 259 254 256 265 258 246 260 273 277 280 281 273 265 258 258 246 220 212 204 200 196 189 185 182 193 185 171 179 178 197 196 190 195 192 199 196 178 166 170 166 170 172 169 170 167
239 254 256 256 261 262 267 262 265 258 261 264 265 265 271 267 258 256 260 257 232 212 208 203 199 192 181 182 187 187 180 177 176 183 190 203 196 198 199 191 182 175 164 151 170 169 163 166 159
271 257 259 253 259 260 261 263 253 249 241 255 256 256 258 254 254 258 254 243 230 221 214 203 201 197 182 188 184 183 185 180 174 180 198 199 198 199 202 190 188 181 164 165 160 159 167 163 168
268 264 259 247 250 252 254 264 251 250 249 249 253 256 256 255 254 252 250 244 232 227 217 208 203 196 190 191 187 186 194 188 184 183 195 202 212 191 203 208 200 186 174 167 160 162 185 168 175
255 256 260 246 244 240 234 257 223 215 232 244 243 245 251 244 241 246 244 252 254 250 217 207 200 195 190 190 184 189 185 186 197 181 188 197 201 200 201 204 195 175 165 161 174 175 174 179 178
239 256 258 249 228 246 217 261 256 306 251 251 248 236 230 245 248 246 251 257 263 255 231 205 198 194 194 187 177 188 187 186 188 183 195 199 196 198 200 206 181 178 168 180 170 184 178 177 180
239 245 246 256 260 226 255 255 254 251 237 234 248 258 258 259 255 253 255 254 257 256 220 200 196 193 189 176 166 175 185 187 184 195 194 200 195 197 197 196 189 169 172 177 177 178 189 176 178
257 264 259 262 281 265 261 269 268 263 254 250 254 257 257 254 259 261 256 247 244 227 208 197 194 188 174 172 166 173 185 183 199 199 194 189 192 197 198 203 198 179 178 181 182 181 183 178 172
244 253 256 265 262 261 277 270 271 267 260 253 253 254 256 258 256 257 241 225 228 219 207 198 193 183 180 178 181 177 170 193 195 199 198 192 194 191 193 198 189 182 175 175 175 183 176 177 170
238 243 253 261 274 252 267 272 265 255 249 250 251 255 257 260 262 259 247 226 220 214 204 197 190 181 184 182 176 184 168 184 200 203 199 196 192 197 194 198 182 176 175 174 175 184 183 171 171
246 240 249 253 243 254 234 269 267 193 243 229 240 237 237 250 251 258 257 244 210 210 191 195 192 184 185 181 180 187 185 190 199 209 210 203 209 201 197 197 188 177 173 178 178 181 183 174 179
250 247 230 230 237 255 251 259 253 263 255 242 227 205 227 265 272 278 280 251 214 177 176 186 183 184 181 185 186 188 199 192 187 212 214 212 207 213 203 204 190 181 181 178 176 179 186 182 182
236 215 218 220 225 235 238 242 251 235 228 192 147 153 74 3 334 308 334 245 177 163 168 177 187 177 177 184 188 192 188 184 199 213 215 214 203 196 193 192 189 184 177 177 176 181 186 184 183
216 215 209 207 204 237 217 219 239 246 206 171 157 126 52 18 6 351 3 165 163 162 171 187 189 174 169 181 180 189 188 191 217 218 221 210 174 175 196 187 187 176 177 174 173 179 187 184 184
216 216 218 214 213 226 172 233 224 213 179 137 133 106 48 36 31 21 23 54 140 165 184 191 191 177 177 177 180 188 188 203 223 225 218 206 203 196 181 189 182 172 172 168 174 176 179 190 186
209 216 222 243 261 249 204 233 246 207 189 164 150 136 81 58 49 44 49 34 31 185 192 189 190 184 180 177 180 183 187 210 215 220 202 191 191 163 166 169 166 159 158 163 164 173 174 192 183
227 208 218 225 229 225 232 224 240 175 169 177 164 133 100 76 68 48 40 37 36 38 180 188 188 185 176 174 181 183 187 208 210 206 189 175 165 165 166 170 166 160 158 158 165 167 170 179 173
201 220 213 224 224 233 234 212 204 175 181 171 143 123 95 76 66 63 45 28 26 29 173 181 176 179 171 177 179 179 196 201 194 200 182 173 159 164 167 165 158 159 163 163 168 169 169 175 173
225 211 202 210 216 237 260 216 118 186 182 162 142 119 96 89 78 67 62 44 34 13 157 155 152 162 164 183 183 180 190 196 180 178 172 156 158 165 166 159 159 163 169 171 176 176 179 174 175